Tracking 18840 objects as of 19-November-2017
HD Live streaming from Space Station
objects crossing your sky now

SGSAT

Track SGSAT now!
10-day predictions
SGSAT is classified as:


NORAD ID: 42703
Int'l Code: 1998-067LL
Perigee: 371.2 km
Apogee: 376.4 km
Inclination: 51.6 °
Period: 91.9 minutes
Semi major axis: 6744 km
RCS: Unknown
Launch date: November 20, 1998
Source: United States (US)
Launch site: TYURATAM MISSILE AND SPACE COMPLEX (TTMTR)
Uplink (MHz):
Downlink (MHz): 437.450
Beacon (MHz):
Mode: 9600bps FSK
Call sign:
Status:

aabbcc
Your satellite tracking list
Your tracking list is empty




NASA's NSSDC Master Catalog

Two Line Element Set (TLE):
1 42703U 98067LL  17323.19279020  .00051450  00000-0  47071-3 0  9999
2 42703  51.6357 338.0625 0003843  66.5067 293.6333 15.67276543 29051
Source of the keplerian elements: AFSPC